Date String (YYYY-MM-DD hh:mm:ss) UTC,Instrument flags,absolute air pressure of the measurement (hPa),sample flow rate (lpm),inlet stack bypass flow (lpm),air temperature of the measurement (°C),ambient temperature measured by the external sensor (°C),aerosol sample conditioner tube jacket temperature (°C),OPC LED temperature (°C),internal box temperature (°C),relative humidity of the measurement (%),span deviation,mass concentration of particles derived from Lorenz-Mie calculation of OPC scattering (μg/m³),mass concentration of particles derived from Lorenz-Mie calculation of OPC scattering (μg/m³),mass concentration of particles derived from Lorenz-Mie calculation of OPC scattering (μg/m³)
DateTimeUTC,F1_M11,P_M11,Q1_M11,Q2_M11,T1_M11,T2_M11,T3_M11,T4_M11,T5_M11,U1_M11,ZSPAN_M11,X0_M11,X2_M11,X1_M11
2023-11-29 01:00:00,SystemResetWarning,0832.7,5.00,000.00,025.4,024.3,000.0,033.9,026.6,9.0,0000.0,0012.90,0005.83,0005.24
2023-11-29 01:01:00,SystemResetWarning,0832.8,4.99,000.00,025.4,024.3,000.0,033.9,026.5,9.0,0000.0,0013.29,0005.82,0005.23
2023-11-29 01:02:00,SystemResetWarning,0832.7,4.99,000.00,025.4,024.3,000.0,033.9,026.6,9.0,0000.0,0013.64,0005.75,0005.20
2023-11-29 01:03:00,SystemResetWarning,0832.7,5.00,000.00,025.4,024.2,000.0,033.9,026.6,9.0,0000.0,0012.28,0005.72,0005.18
2023-11-29 01:04:00,SystemResetWarning,0832.7,5.00,000.00,025.3,024.2,000.0,033.8,026.6,9.0,0000.0,0012.00,0005.67,0005.15
2023-11-29 01:05:00,SystemResetWarning,0832.7,5.00,000.00,025.3,024.2,000.0,033.8,026.5,9.1,0000.0,0011.89,0005.62,0005.12
2023-11-29 01:06:00,SystemResetWarning,0832.7,5.01,000.00,025.3,024.2,000.0,033.8,026.5,9.1,0000.0,0011.59,0005.59,0005.09
2023-11-29 01:07:00,SystemResetWarning,0832.7,5.00,000.00,025.3,024.1,000.0,033.8,026.5,9.1,0000.0,0011.48,0005.58,0005.07
2023-11-29 01:08:00,SystemResetWarning,0832.8,5.01,000.00,025.3,024.1,000.0,033.8,026.4,9.1,0000.0,0011.43,0005.57,0005.06
2023-11-29 01:09:00,SystemResetWarning,0832.8,5.00,000.00,025.2,024.1,000.0,033.8,026.4,9.2,0000.0,0011.93,0005.58,0005.05
2023-11-29 01:10:00,SystemResetWarning,0832.9,5.00,000.00,025.2,024.0,000.0,033.7,026.4,9.2,0000.0,0012.05,0005.59,0005.04
2023-11-29 01:11:00,SystemResetWarning,0832.8,5.00,000.00,025.2,024.0,000.0,033.7,026.4,9.2,0000.0,0012.29,0005.57,0005.02
2023-11-29 01:12:00,SystemResetWarning,0832.7,5.00,000.00,025.2,024.0,000.0,033.7,026.4,9.2,0000.0,0012.50,0005.58,0005.01
2023-11-29 01:13:00,SystemResetWarning,0832.7,5.00,000.00,025.1,023.9,000.0,033.7,026.4,9.2,0000.0,0011.53,0005.58,0005.02
2023-11-29 01:14:00,SystemResetWarning,0832.7,5.00,000.00,025.1,023.9,000.0,033.7,026.3,9.2,0000.0,0010.92,0005.54,0005.03
2023-11-29 01:15:00,SystemResetWarning,0832.9,5.00,000.00,025.1,023.9,000.0,033.6,026.3,9.2,0000.0,0010.88,0005.53,0005.04
2023-11-29 01:16:00,SystemResetWarning,0832.8,5.00,000.00,025.1,023.8,000.0,033.6,026.3,9.2,0000.0,0011.05,0005.55,0005.05
2023-11-29 01:17:00,SystemResetWarning,0832.8,5.00,000.00,025.1,023.8,000.0,033.6,026.3,9.3,0000.0,0012.11,0005.54,0005.07
2023-11-29 01:18:00,SystemResetWarning,0832.7,4.99,000.00,025.0,023.8,000.0,033.6,026.3,9.3,0000.0,0012.48,0005.53,0005.08
2023-11-29 01:19:00,SystemResetWarning,0832.8,5.01,000.00,025.0,023.8,000.0,033.6,026.3,9.3,0000.0,0013.02,0005.54,0005.08
2023-11-29 01:20:00,SystemResetWarning,0832.8,5.01,000.00,025.0,023.8,000.0,033.6,026.2,9.3,0000.0,0012.72,0005.50,0005.07
2023-11-29 01:21:00,SystemResetWarning,0832.8,5.00,000.00,025.0,023.8,000.0,033.6,026.3,9.3,0000.0,0012.91,0005.47,0005.08
2023-11-29 01:22:00,SystemResetWarning,0832.8,5.00,000.00,025.0,023.8,000.0,033.5,026.3,9.3,0000.0,0012.41,0005.46,0005.07
2023-11-29 01:23:00,SystemResetWarning,0832.7,5.01,000.00,025.0,023.8,000.0,033.5,026.2,9.3,0000.0,0012.36,0005.44,0005.06
2023-11-29 01:24:00,SystemResetWarning,0832.7,5.00,000.00,025.0,023.8,000.0,033.5,026.2,9.3,0000.0,0012.55,0005.44,0005.05
2023-11-29 01:25:00,SystemResetWarning,0832.7,5.00,000.00,025.0,023.8,000.0,033.5,026.3,9.4,0000.0,0012.66,0005.46,0005.03
2023-11-29 01:26:00,SystemResetWarning,0832.6,5.00,000.00,025.0,023.8,000.0,033.5,026.3,9.4,0000.0,0012.96,0005.48,0005.01
2023-11-29 01:27:00,SystemResetWarning,0832.7,5.00,000.00,025.0,023.9,000.0,033.5,026.2,9.4,0000.0,0013.01,0005.46,0004.99
2023-11-29 01:28:00,SystemResetWarning,0832.6,5.00,000.00,025.0,023.9,000.0,033.4,026.2,9.4,0000.0,0012.03,0005.48,0004.98
2023-11-29 01:29:00,SystemResetWarning,0832.6,5.00,000.00,025.0,023.9,000.0,033.4,026.3,9.4,0000.0,0011.67,0005.46,0004.97
2023-11-29 01:30:00,SystemResetWarning,0832.6,5.00,000.00,025.0,023.9,000.0,033.4,026.3,9.5,0000.0,0011.63,0005.43,0004.94
2023-11-29 01:31:00,SystemResetWarning,0832.6,5.00,000.00,025.0,023.9,000.0,033.4,026.3,9.5,0000.0,0011.70,0005.40,0004.93
2023-11-29 01:32:00,SystemResetWarning,0832.6,5.00,000.00,025.0,023.9,000.0,033.4,026.3,9.5,0000.0,0011.88,0005.40,0004.91
2023-11-29 01:33:00,SystemResetWarning,0832.6,5.00,000.00,025.0,024.0,000.0,033.4,026.3,9.5,0000.0,0012.17,0005.37,0004.90
2023-11-29 01:34:00,SystemResetWarning,0832.6,5.01,000.00,025.0,024.0,000.0,033.4,026.3,9.5,0000.0,0011.98,0005.38,0004.91
2023-11-29 01:35:00,SystemResetWarning,0832.7,5.01,000.00,025.0,024.0,000.0,033.4,026.3,9.5,0000.0,0012.00,0005.38,0004.91
2023-11-29 01:36:00,SystemResetWarning,0832.7,5.00,000.00,025.1,024.0,000.0,033.4,026.3,9.5,0000.0,0012.20,0005.38,0004.91
2023-11-29 01:37:00,SystemResetWarning,0832.6,5.00,000.00,025.1,024.0,000.0,033.4,026.3,9.5,0000.0,0012.25,0005.40,0004.92
2023-11-29 01:38:00,SystemResetWarning,0832.7,5.00,000.00,025.1,024.0,000.0,033.4,026.3,9.5,0000.0,0012.14,0005.40,0004.93
2023-11-29 01:39:00,SystemResetWarning,0832.6,5.00,000.00,025.1,024.0,000.0,033.4,026.3,9.5,0000.0,0012.02,0005.39,0004.94
2023-11-29 01:40:00,SystemResetWarning,0832.7,4.99,000.00,025.1,024.0,000.0,033.4,026.3,9.5,0000.0,0011.94,0005.41,0004.94
2023-11-29 01:41:00,SystemResetWarning,0832.7,5.00,000.00,025.1,024.0,000.0,033.4,026.4,9.5,0000.0,0012.18,0005.41,0004.94
2023-11-29 01:42:00,SystemResetWarning,0832.7,4.99,000.00,025.1,024.0,000.0,033.4,026.4,9.5,0000.0,0012.10,0005.42,0004.93
2023-11-29 01:43:00,SystemResetWarning,0832.7,5.00,000.00,025.1,024.0,000.0,033.4,026.3,9.5,0000.0,0012.02,0005.41,0004.93
2023-11-29 01:44:00,SystemResetWarning,0832.7,5.00,000.00,025.1,024.1,000.0,033.4,026.3,9.5,0000.0,0011.71,0005.41,0004.92
2023-11-29 01:45:00,SystemResetWarning,0832.7,5.00,000.00,025.1,024.1,000.0,033.4,026.3,9.6,0000.0,0011.35,0005.38,0004.91
2023-11-29 01:46:00,SystemResetWarning,0832.8,5.00,000.00,025.1,024.1,000.0,033.4,026.3,9.5,0000.0,0010.80,0005.34,0004.90
2023-11-29 01:47:00,SystemResetWarning,0832.8,5.01,000.00,025.1,024.1,000.0,033.4,026.3,9.5,0000.0,0010.45,0005.30,0004.89
2023-11-29 01:48:00,SystemResetWarning,0832.8,5.01,000.00,025.1,024.1,000.0,033.4,026.3,9.5,0000.0,0010.17,0005.27,0004.89
2023-11-29 01:49:00,SystemResetWarning,0832.7,5.01,000.00,025.1,024.1,000.0,033.4,026.3,9.5,0000.0,0010.03,0005.24,0004.86
2023-11-29 01:50:00,SystemResetWarning,0832.8,5.00,000.00,025.1,024.1,000.0,033.4,026.3,9.5,0000.0,0009.98,0005.20,0004.84
2023-11-29 01:51:00,SystemResetWarning,0832.8,5.00,000.00,025.1,024.1,000.0,033.4,026.4,9.5,0000.0,0009.89,0005.15,0004.82
2023-11-29 01:52:00,SystemResetWarning,0832.8,5.00,000.00,025.1,024.1,000.0,033.4,026.3,9.5,0000.0,0009.12,0005.13,0004.81
2023-11-29 01:53:00,SystemResetWarning,0832.7,4.99,000.00,025.0,024.0,000.0,033.4,026.3,9.5,0000.0,0008.98,0005.15,0004.80
2023-11-29 01:54:00,SystemResetWarning,0832.8,5.00,000.00,025.0,024.0,000.0,033.4,026.3,9.5,0000.0,0008.47,0005.15,0004.80
2023-11-29 01:55:00,SystemResetWarning,0832.8,5.00,000.00,025.0,024.0,000.0,033.4,026.3,9.5,0000.0,0008.50,0005.16,0004.80
2023-11-29 01:56:00,SystemResetWarning,0833.2,4.99,000.00,025.0,024.0,000.0,033.4,026.3,9.5,0000.0,0008.49,0005.14,0004.78
2023-11-29 01:57:00,SystemResetWarning,0833.3,5.00,000.00,025.0,023.9,000.0,033.4,026.3,9.5,0000.0,0008.53,0005.16,0004.79
2023-11-29 01:58:00,SystemResetWarning,0833.0,4.99,000.00,025.0,023.9,000.0,033.3,026.3,9.6,0000.0,0008.61,0005.20,0004.81
2023-11-29 01:59:00,SystemResetWarning,0832.9,5.00,000.00,025.0,023.9,000.0,033.3,026.2,9.6,0000.0,0008.61,0005.20,0004.82
